CAPE
396 472 550 629 706 731 673 589 723 742 907 1065 990 879 885 647 528 498 578 659 765 504 375 382 402 542 456 459 519 491 543 615 490 565 511 442 458 352 243 811 986 1032 1293
404 451 470 544 605 724 700 630 849 859 924 1017 821 776 996 643 531 715 662 732 654 622 516 342 504 481 313 552 522 539 741 867 635 280 464 377 240 203 428 437 671 955 1235
51 382 475 562 598 633 644 633 634 733 589 893 940 693 871 751 878 972 1024 886 798 694 655 331 361 378 264 552 303 443 620 918 468 660 593 561 620 239 195 298 370 653 1017
294 275 330 527 604 580 605 639 703 790 591 608 906 762 798 756 779 661 751 959 950 600 533 466 496 501 512 519 483 382 587 549 705 501 632 522 503 752 478 269 201 161 383
254 159 250 522 712 892 671 701 708 665 631 640 640 741 871 851 883 837 759 549 831 850 961 659 850 718 737 712 677 798 617 586 619 659 555 533 451 338 459 528 672 269 275
760 156 853 865 933 831 1060 826 738 667 714 714 546 653 882 976 902 785 797 646 513 628 869 1020 942 967 908 713 663 596 786 802 759 822 630 698 603 536 328 247 307 335 428
674 1174 1296 1207 1318 1281 984 1162 1000 978 832 512 331 602 655 668 649 542 649 729 793 1085 887 1082 1068 1132 1118 958 859 767 658 793 738 756 786 749 766 622 567 339 403 187 337
1215 1081 1181 1194 1164 1511 1582 1055 965 1077 990 887 804 1002 980 637 632 799 837 1023 991 927 1005 1178 1327 1225 1129 1122 1123 1106 994 865 751 801 726 798 788 696 760 803 544 481 97
1053 1017 695 586 468 748 1049 942 793 1166 1277 1242 1234 1141 1147 1227 1520 1652 1659 1325 971 814 1108 121 932 832 1247 1230 1115 1100 1063 1057 918 971 777 736 750 798 717 714 598 628 596
731 257 207 79 0 6 69 191 528 964 1131 1151 1407 1370 1435 1616 1526 1256 1160 922 1125 1232 1014 958 1008 1160 1155 926 1102 1185 1239 1163 1033 1030 993 1052 927 817 825 894 846 646 628
112 18 0 0 0 0 0 0 0 0 0 64 322 689 1117 509 438 336 436 381 525 616 698 843 1308 1063 1092 1277 1331 1469 1248 1161 1246 1191 1215 1231 1334 1386 825 684 738 737 662
16 0 0 0 0 0 0 0 0 0 0 0 0 0 0 0 0 0 0 2 13 124 299 420 524 749 1115 958 1137 1283 1327 1238 1218 1286 1208 1206 1278 1234 1218 1011 943 971 952
93 32 0 0 0 0 0 0 0 0 0 0 0 0 0 0 0 0 0 0 0 0 0 4 112 317 524 926 834 872 968 1115 1169 1262 1293 1389 1156 1339 1166 1294 1169 1092 988
170 84 26 3 0 0 0 0 0 0 0 0 0 0 0 0 0 0 0 0 0 0 0 0 0 11 146 350 684 800 751 1071 1299 1386 1366 1486 1430 1424 1485 1198 1124 1098 1042
141 50 9 0 0 0 0 0 0 0 0 0 0 0 0 0 0 0 0 0 0 0 0 0 0 0 0 96 298 524 851 876 889 1104 1291 1400 1317 1179 1216 1244 1256 1246 1056
89 3 0 0 0 0 0 0 0 0 0 0 0 0 0 0 0 0 0 0 0 0 0 0 0 0 0 0 57 210 298 638 692 564 690 797 793 726 774 817 900 974 1369
111 18 0 0 0 0 0 0 0 0 0 0 0 0 0 0 0 0 0 0 0 0 0 0 0 0 0 0 1 65 171 280 400 613 511 486 693 657 1076 981 868 931 981
95 54 1 0 0 0 0 0 0 0 0 0 0 0 0 0 0 0 0 0 0 0 0 0 0 0 0 0 0 17 66 154 260 212 329 497 516 520 707 801 884 872 1025
70 20 0 0 0 0 0 0 0 0 0 0 0 0 0 0 0 0 0 0 0 0 0 0 0 0 0 0 0 11 55 50 29 112 341 523 677 621 700 328 207 144 179
33 0 0 0 0 0 0 0 0 0 0 0 0 0 0 0 0 0 0 0 0 0 0 0 0 0 0 0 0 0 14 46 52 209 359 401 622 768 220 41 0 0 0
7 0 0 0 0 0 0 0 0 0 0 0 0 0 0 0 0 0 0 0 2 1 2 3 2 0 8 0 0 0 17 33 111 296 552 688 386 228 93 10 0 0 0
0 0 0 0 0 0 0 0 0 0 0 0 0 0 0 0 2 1 0 0 0 1 3 3 2 4 4 17 50 21 56 104 160 217 349 164 109 29 3 0 0 0 0
0 0 0 0 0 0 0 0 0 0 0 0 0 0 0 3 2 4 0 2 4 2 2 5 0 0 10 12 79 65 94 77 89 111 165 88 80 54 7 0 0 0 0
0 0 0 0 0 0 0 0 0 0 3 0 0 0 1 0 1 0 0 0 4 2 0 0 0 0 0 3 15 18 41 53 53 70 80 55 28 22 16 5 2 6 19
0 0 0 0 0 0 0 0 0 0 0 3 2 0 0 0 2 1 0 0 3 2 5 8 1 0 0 0 0 5 20 35 44 48 48 50 42 12 0 0 1 13 18
0 0 0 0 0 0 0 0 0 0 0 0 0 0 0 0 0 0 0 0 4 3 0 0 0 0 0 0 0 0 0 14 43 42 32 30 11 14 0 0 0 1 0
CIN
-66 -61 -131 -95 -80 -51 -64 -34 -58 -41 -106 -55 -39 -31 -18 -28 -22 -7 -30 -74 -36 -47 -45 -48 -44 -29 -49 -89 -26 -17 -14 -15 -119 -106 -117 -51 -62 -83 -171 -134 -122 -121 -109
-130 -87 -94 -71 -101 -80 -43 -140 -99 -60 -71 -62 -52 -50 -26 -29 -53 -25 -20 -30 -31 -33 -19 -137 -65 -45 -39 -36 -32 -28 -39 -18 -16 -36 -37 -112 -95 -215 -181 -190 -147 -127 -101
-114 -120 -78 -38 -44 -56 -94 -56 -40 -58 -68 -66 -51 -52 -42 -61 -74 -53 -49 -44 -26 -22 -33 -58 -8 -47 -92 -32 -37 -104 -114 -76 -79 -17 -38 -33 -61 -68 -75 -104 -92 -173 -125
-153 -386 -163 -69 -64 -68 -55 -71 -57 -52 -90 -73 -74 -39 -50 -42 -28 -30 -45 -28 -32 -52 -51 -28 -155 -7 -24 -27 -13 -100 -35 -56 -76 -27 -27 -37 -55 -57 -109 -103 -54 -111 -221
-239 -233 -38 -50 -59 -272 -308 -308 -126 -120 -77 -110 -63 -90 -34 -30 -26 -16 -9 -166 -49 -32 -31 -37 -125 -69 -26 -25 -12 -100 -111 -35 -86 -75 -98 -40 -55 -55 -43 -94 -126 -228 -246
-304 -370 -295 -324 -313 -271 -211 -184 -108 -140 -124 -134 -228 -207 -119 -51 -34 -33 -12 -22 -171 -63 -43 -42 -126 -28 -23 -21 -48 -57 -108 -101 -49 -79 -48 -75 -70 -84 -67 -93 -138 -119 -207
-233 -252 -159 -193 -204 -223 -264 -144 -171 -98 -100 -307 -411 -351 -236 -161 -93 -125 -129 -113 -90 -39 -59 -32 -63 -31 -34 -42 -41 -56 -56 -124 -36 -30 -90 -85 -85 -24 -26 -100 -110 -145 -163
-232 -192 -109 -117 -134 -141 -130 -162 -106 -95 -127 -120 -281 -218 -126 -129 -161 -106 -78 -36 -90 -97 -81 -44 -20 -24 -28 -75 -56 -41 -31 -29 -51 -96 -41 -82 -80 -46 -29 -57 -58 -78 -160
-211 -179 -225 -222 -320 -182 -115 -78 -72 -89 -84 -74 -70 -104 -82 -51 -44 -20 -11 -15 -55 -104 -59 -351 -75 -120 -39 -56 -144 -57 -127 -41 -38 -30 -27 -12 -81 -80 -84 -90 -39 -41 -40
-94 -192 -292 -383 0 -110 -303 -248 -140 -71 -48 -32 -2 0 0 0 0 -3 -5 -11 -11 -13 -24 -40 -47 -68 -98 -188 -69 -79 -111 -52 -82 -39 -37 -85 -85 -47 -69 -82 -67 -43 -29
-342 -439 0 0 0 0 0 0 0 0 0 -36 -137 -17 0 -10 -14 -39 -22 -47 -21 -20 -17 -15 -15 -26 -69 -72 -32 -14 -25 -44 -87 -95 -85 -75 -59 -44 -53 -54 -76 -66 -31
-83 0 0 0 0 0 0 0 0 0 0 0 0 0 0 0 0 0 0 -11 -101 -88 -50 -24 -15 -16 -10 -59 -39 -23 -46 -73 -34 -78 -64 -66 -58 -45 -30 -29 -26 -44 -46
-70 -75 0 0 0 0 0 0 0 0 0 0 0 0 0 0 0 0 0 0 0 0 0 -55 -132 -45 -13 -15 -21 -38 -27 -21 -13 -25 -38 -33 -63 -35 -54 -38 -30 -39 -40
-84 -58 -96 -68 0 0 0 0 0 0 0 0 0 0 0 0 0 0 0 0 0 0 0 0 0 -107 -71 -37 -7 -9 -10 -21 -15 -26 -32 -18 -14 -15 -14 -39 -31 -29 -32
-70 -71 -155 0 0 0 0 0 0 0 0 0 0 0 0 0 0 0 0 0 0 0 0 0 0 0 -3 -78 -20 -7 -1 -9 -5 -6 -6 -7 -14 -18 -29 -10 -17 -15 -22
-58 -53 0 0 0 0 0 0 0 0 0 0 0 0 0 0 0 0 0 0 0 0 0 0 0 0 0 0 -114 -49 -23 0 0 -24 -11 -6 -8 -44 -46 -41 -41 -28 -2
-36 -48 0 0 0 0 0 0 0 0 0 0 0 0 0 0 0 0 0 0 0 0 0 0 0 0 0 0 0 -129 -76 -24 -5 -1 -22 -25 -21 -12 -7 -26 -47 -39 -26
-19 -31 -19 0 0 0 0 0 0 0 0 0 0 0 0 0 0 0 0 0 0 0 0 0 0 0 0 0 0 -75 -141 -86 -36 -16 -46 -29 -41 -17 -6 -11 -22 -33 -8
-34 -113 0 0 0 0 0 0 0 0 0 0 0 0 0 0 0 0 0 0 0 0 0 0 0 0 0 0 0 0 -162 -151 -155 -169 -77 -45 -39 -36 -23 -77 -124 -178 -164
-89 0 0 0 0 0 0 0 0 0 0 0 0 0 0 0 0 0 0 0 0 0 0 0 0 0 0 0 0 0 -27 -156 -148 -156 -105 -18 -48 -29 -31 -101 0 0 0
-162 0 0 0 0 0 0 0 0 0 0 0 0 0 0 0 0 0 0 0 0 0 0 0 0 0 0 0 0 0 -45 -89 -163 -102 -78 -52 -34 -12 -31 -36 0 0 0
0 0 0 0 0 0 0 0 0 0 0 0 0 0 0 0 0 0 0 0 0 0 0 0 0 -3 -3 -76 -174 -117 -80 -126 -81 -96 -81 -73 -112 -23 -21 0 0 0 0
0 0 0 0 0 0 0 0 0 0 0 0 0 0 0 0 0 0 0 0 0 0 0 0 0 0 -5 -5 -116 -122 -91 -8 -192 -172 -114 -57 -18 -6 -8 0 0 0 0
0 0 0 0 0 0 0 0 0 0 -19 0 0 0 0 0 0 0 0 0 -3 0 -1 0 0 0 0 -3 -4 -10 -13 -10 -21 -41 -30 -28 -35 -52 -5 -4 -131 -118 -128
0 0 0 0 0 0 0 0 0 0 0 -16 0 0 0 0 0 0 0 0 0 -1 0 -1 0 0 0 0 0 -5 -6 -8 -7 -3 -9 -4 -1 -10 0 0 0 -78 -122
0 0 0 0 0 0 0 0 0 0 0 0 -3 0 0 0 0 -1 0 0 0 0 0 0 0 0 0 0 0 0 0 -4 -1 -1 -2 -4 -8 -22 0 0 0 0 0
Wind_Speed
10 7 8 5 13 12 8 6 6 8 11 12 10 9 7 7 6 5 4 3 4 4 6 5 6 6 7 7 9 5 6 8 8 4 2 6 11 8 11 5 3 3 13
2 5 12 5 5 9 7 2 6 11 13 16 15 13 11 10 11 9 7 3 2 4 4 4 3 7 7 6 6 4 2 0 3 3 2 3 2 3 8 8 9 5 7
nan 3 9 5 3 5 2 4 9 11 10 10 12 14 14 14 14 12 9 6 3 4 6 6 7 7 10 10 9 9 7 7 6 5 7 5 2 2 4 5 7 4 6
13 11 6 11 6 2 14 14 13 5 7 9 11 9 9 10 12 10 11 10 7 5 6 8 11 10 12 10 10 12 12 14 12 12 11 10 9 7 7 7 3 4 7
18 17 13 12 9 11 21 19 12 2 4 4 7 13 13 14 14 12 11 10 10 10 8 9 11 13 13 12 12 12 13 14 16 15 18 17 14 13 11 10 10 8 7
20 20 17 10 16 5 13 10 16 18 15 6 6 5 8 9 8 8 7 5 4 9 8 10 11 15 17 16 12 13 14 14 15 17 16 18 16 14 12 12 14 12 12
24 21 19 13 13 11 8 11 12 17 17 21 10 16 13 11 11 10 9 9 8 9 6 10 10 10 9 10 13 16 13 16 19 15 16 18 18 17 16 14 12 14 16
23 25 18 12 17 19 14 17 15 11 10 13 2 4 3 4 8 7 8 9 13 17 16 13 14 14 14 12 11 12 14 17 19 16 17 20 20 19 19 19 18 16 nan
19 17 10 8 13 14 14 16 17 20 19 15 15 10 8 11 14 14 14 17 19 25 17 4 13 15 19 16 16 16 13 18 17 17 19 22 22 21 20 19 21 19 19
17 16 16 nan nan nan nan 18 18 20 18 19 18 16 16 15 15 18 20 24 25 25 20 16 16 15 17 13 13 18 18 20 19 19 19 21 24 22 22 20 19 21 22
18 nan nan nan nan nan nan nan nan nan nan nan 11 12 12 13 14 16 16 18 20 22 21 19 20 22 18 17 20 23 20 21 19 22 20 19 26 23 23 20 22 21 23
nan nan nan nan nan nan nan nan nan nan nan nan nan nan nan nan nan nan nan nan nan 20 22 23 22 22 23 22 20 18 23 25 26 24 24 20 25 21 24 24 20 20 22
nan nan nan nan nan nan nan nan nan nan nan nan nan nan nan nan nan nan nan nan nan nan nan nan 27 27 25 24 23 21 22 25 23 24 26 24 26 27 29 28 26 24 23
22 nan nan nan nan nan nan nan nan nan nan nan nan nan nan nan nan nan nan nan nan nan nan nan nan nan 28 27 27 26 24 25 29 29 34 36 32 27 30 31 30 31 27
26 nan nan nan nan nan nan nan nan nan nan nan nan nan nan nan nan nan nan nan nan nan nan nan nan nan nan nan 32 31 29 30 30 32 32 31 34 33 33 36 36 37 34
nan nan nan nan nan nan nan nan nan nan nan nan nan nan nan nan nan nan nan nan nan nan nan nan nan nan nan nan nan 33 34 33 32 32 34 32 29 31 26 25 26 29 31
28 nan nan nan nan nan nan nan nan nan nan nan nan nan nan nan nan nan nan nan nan nan nan nan nan nan nan nan nan nan 35 34 34 33 35 36 35 33 30 27 26 27 27
nan nan nan nan nan nan nan nan nan nan nan nan nan nan nan nan nan nan nan nan nan nan nan nan nan nan nan nan nan nan nan 34 31 32 32 34 37 38 36 38 35 34 35
nan nan nan nan nan nan nan nan nan nan nan nan nan nan nan nan nan nan nan nan nan nan nan nan nan nan nan nan nan nan nan nan nan 30 30 33 34 37 43 41 39 36 35
nan nan nan nan nan nan nan nan nan nan nan nan nan nan nan nan nan nan nan nan nan nan nan nan nan nan nan nan nan nan nan nan nan 33 32 31 34 45 45 nan nan nan nan
nan nan nan nan nan nan nan nan nan nan nan nan nan nan nan nan nan nan nan nan nan nan nan nan nan nan nan nan nan nan nan nan 33 33 35 40 43 45 nan nan nan nan nan
nan nan nan nan nan nan nan nan nan nan nan nan nan nan nan nan nan nan nan nan nan nan nan nan nan nan nan nan nan nan nan 32 33 34 38 43 43 nan nan nan nan nan nan
nan nan nan nan nan nan nan nan nan nan nan nan nan nan nan nan nan nan nan nan nan nan nan nan nan nan nan nan nan nan nan nan nan 35 38 nan nan nan nan nan nan nan nan
nan nan nan nan nan nan nan nan nan nan nan nan nan nan nan nan nan nan nan nan nan nan nan nan nan nan nan nan nan nan nan nan nan nan nan nan nan nan nan nan nan nan nan
nan nan nan nan nan nan nan nan nan nan nan nan nan nan nan nan nan nan nan nan nan nan nan nan nan nan nan nan nan nan nan nan nan nan nan nan nan nan nan nan nan nan nan
nan nan nan nan nan nan nan nan nan nan nan nan nan nan nan nan nan nan nan nan nan nan nan nan nan nan nan nan nan nan nan nan nan nan nan nan nan nan nan nan nan nan nan
Wind_Direction
155 176 122 3 342 353 350 98 133 138 165 173 181 181 158 160 172 161 110 48 25 29 12 25 356 0 360 16 21 58 54 77 122 148 60 47 29 48 30 10 282 28 31
64 156 141 99 359 356 10 90 161 177 176 178 182 185 192 186 192 192 183 179 319 328 325 334 334 312 304 314 317 336 316 212 281 317 250 152 140 36 27 11 50 56 39
nan 196 108 113 41 14 64 193 196 207 199 210 203 199 202 204 204 205 204 209 239 287 307 296 280 281 283 278 273 287 296 279 269 301 279 246 255 260 322 358 14 5 28
268 241 203 148 138 287 250 213 204 178 180 212 218 206 207 213 216 213 217 206 224 231 265 276 285 280 277 278 282 284 273 271 271 268 278 277 278 271 240 282 301 312 347
264 253 238 201 198 279 331 348 355 270 237 259 252 214 209 222 223 216 197 206 222 223 230 265 265 273 265 264 272 267 272 269 269 275 276 274 269 271 275 265 257 262 292
248 238 234 252 195 219 342 346 327 334 353 292 241 241 149 145 175 198 202 208 260 257 231 259 270 272 273 273 274 277 278 274 270 271 279 283 281 282 288 275 266 264 260
234 232 213 200 207 225 290 326 321 345 345 351 220 215 175 167 173 173 186 200 224 257 263 270 284 286 292 289 270 267 270 286 271 272 277 275 277 271 275 271 263 269 264
229 230 223 227 229 227 264 286 309 323 341 342 72 71 13 245 228 201 201 254 271 265 250 254 267 267 273 283 291 301 291 289 295 297 290 282 280 279 269 268 268 256 nan
229 244 265 260 258 265 259 274 290 292 294 290 288 268 260 267 282 285 284 269 271 304 353 340 311 279 288 285 299 294 295 291 288 290 285 282 276 277 278 271 266 267 258
259 260 262 nan nan nan nan 278 271 271 277 277 275 277 271 272 275 275 274 276 282 290 309 308 306 300 291 309 303 282 288 290 284 280 288 285 282 277 276 271 274 271 264
277 nan nan nan nan nan nan nan nan nan nan nan 274 278 278 278 277 278 277 274 283 288 285 282 286 296 302 299 295 292 288 298 280 286 288 290 283 278 278 280 271 276 275
nan nan nan nan nan nan nan nan nan nan nan nan nan nan nan nan nan nan nan nan nan 293 298 300 295 291 293 293 293 286 277 284 287 292 277 280 286 284 279 280 286 284 280
nan nan nan nan nan nan nan nan nan nan nan nan nan nan nan nan nan nan nan nan nan nan nan nan 285 287 288 288 285 279 271 271 274 273 275 268 271 275 277 281 282 282 280
290 nan nan nan nan nan nan nan nan nan nan nan nan nan nan nan nan nan nan nan nan nan nan nan nan nan 283 285 287 284 275 270 270 263 266 261 273 260 268 276 283 286 283
282 nan nan nan nan nan nan nan nan nan nan nan nan nan nan nan nan nan nan nan nan nan nan nan nan nan nan nan 271 272 273 270 265 265 268 267 269 270 258 270 275 281 280
nan nan nan nan nan nan nan nan nan nan nan nan nan nan nan nan nan nan nan nan nan nan nan nan nan nan nan nan nan 266 270 271 273 268 269 267 264 265 278 278 283 284 279
275 nan nan nan nan nan nan nan nan nan nan nan nan nan nan nan nan nan nan nan nan nan nan nan nan nan nan nan nan nan 268 266 270 270 264 266 269 269 264 267 273 280 288
nan nan nan nan nan nan nan nan nan nan nan nan nan nan nan nan nan nan nan nan nan nan nan nan nan nan nan nan nan nan nan 266 264 266 268 264 265 268 265 263 262 263 266
nan nan nan nan nan nan nan nan nan nan nan nan nan nan nan nan nan nan nan nan nan nan nan nan nan nan nan nan nan nan nan nan nan 264 265 265 266 268 266 263 260 259 260
nan nan nan nan nan nan nan nan nan nan nan nan nan nan nan nan nan nan nan nan nan nan nan nan nan nan nan nan nan nan nan nan nan 260 262 268 266 267 267 nan nan nan nan
nan nan nan nan nan nan nan nan nan nan nan nan nan nan nan nan nan nan nan nan nan nan nan nan nan nan nan nan nan nan nan nan 261 259 255 259 261 264 nan nan nan nan nan
nan nan nan nan nan nan nan nan nan nan nan nan nan nan nan nan nan nan nan nan nan nan nan nan nan nan nan nan nan nan nan 261 257 252 255 258 257 nan nan nan nan nan nan
nan nan nan nan nan nan nan nan nan nan nan nan nan nan nan nan nan nan nan nan nan nan nan nan nan nan nan nan nan nan nan nan nan 252 250 nan nan nan nan nan nan nan nan
nan nan nan nan nan nan nan nan nan nan nan nan nan nan nan nan nan nan nan nan nan nan nan nan nan nan nan nan nan nan nan nan nan nan nan nan nan nan nan nan nan nan nan
nan nan nan nan nan nan nan nan nan nan nan nan nan nan nan nan nan nan nan nan nan nan nan nan nan nan nan nan nan nan nan nan nan nan nan nan nan nan nan nan nan nan nan
nan nan nan nan nan nan nan nan nan nan nan nan nan nan nan nan nan nan nan nan nan nan nan nan nan nan nan nan nan nan nan nan nan nan nan nan nan nan nan nan nan nan nan